FW1946 Weather Reports


Display with metric or nautical units.
time (UTC)temp
F
wind
direction
speed
MPH
gust
MPH
rain 1hr
in
rain 24hr
in
rain mn
in
humidity
%
barometer
mb
20260503174536 73 326 1.0 4.0 0.00 0.00 0.00 53 1014.0
20260503173036 71 339 1.0 3.0 0.00 0.00 0.00 56 1014.2
20260503171530 70 346 1.0 4.0 0.00 0.00 0.00 59 1014.3
20260503071642 54 157 0.0 0.0 0.00 0.00 0.00 90 1014.4
20260503054538 57 337 0.0 0.0 0.00 0.00 0.00 85 1014.1
20260503053035 58 337 0.0 0.0 0.00 0.00 0.00 84 1014.3
20260503051536 60 337 0.0 0.0 0.00 0.00 0.00 79 1013.9
20260503043032 61 337 0.0 1.0 0.00 0.00 0.00 79 1013.8
20260503041540 60 337 1.0 3.0 0.00 0.00 0.00 79 1013.6
20260503040042 61 337 0.0 1.0 0.00 0.00 0.00 77 1013.3
20260503034538 62 337 0.0 0.0 0.00 0.00 0.00 75 1013.0
20260503033036 63 337 0.0 0.0 0.00 0.00 0.00 72 1012.6
20260503031533 65 337 0.0 2.0 0.00 0.00 0.00 70 1012.2
20260503030039 65 337 0.0 3.0 0.00 0.00 0.00 69 1012.0
20260503024536 66 337 0.0 1.0 0.00 0.00 0.00 67 1011.8
20260503023037 68 337 0.0 2.0 0.00 0.00 0.00 65 1011.7
20260503021532 68 337 0.0 2.0 0.00 0.00 0.00 64 1011.6
20260503020039 69 355 0.0 2.0 0.00 0.00 0.00 64 1011.4
20260503014538 70 337 0.0 2.0 0.00 0.00 0.00 63 1011.4
20260503013031 71 337 0.0 0.0 0.00 0.00 0.00 62 1011.4
20260503010037 73 337 0.0 2.0 0.00 0.00 0.00 59 1011.4
20260503004530 75 337 0.0 2.0 0.00 0.00 0.00 56 1011.4
20260503003029 75 337 0.0 2.0 0.00 0.00 0.00 54 1011.3
20260503001608 75 344 1.0 4.0 0.00 0.00 0.00 54 1011.4
20260502233038 76 3 2.0 4.0 0.00 0.00 0.00 55 1012.0
20260502230158 76 29 1.0 4.0 0.00 0.00 0.00 56 1012.2
20260502224652 75 353 1.0 4.0 0.00 0.00 0.00 57 1012.4
20260502223037 75 2 2.0 5.0 0.00 0.00 0.00 57 1012.8
20260502221532 75 10 2.0 5.0 0.00 0.00 0.00 58 1013.0
20260502220039 75 9 2.0 5.0 0.00 0.00 0.00 58 1013.2
20260502214531 74 307 1.0 5.0 0.00 0.00 0.00 58 1013.4
20260502213031 72 320 1.0 3.0 0.00 0.00 0.00 60 1013.6
20260502211535 72 343 0.0 4.0 0.00 0.00 0.00 60 1013.9
20260502210031 71 347 0.0 3.0 0.00 0.00 0.00 61 1014.1
20260502204528 71 358 2.0 4.0 0.00 0.00 0.00 60 1014.2
20260502203037 71 339 0.0 3.0 0.00 0.00 0.00 62 1014.4
20260502200035 64 235 1.0 5.0 0.00 0.00 0.00 72 1014.6
20260502193105 62 337 3.0 5.0 0.00 0.00 0.00 71 1015.3
20260502191607 63 337 3.0 5.0 0.00 0.00 0.00 71 1015.5
20260502184649 62 356 3.0 7.0 0.00 0.00 0.00 73 1016.1
20260502183034 61 16 2.0 5.0 0.00 0.00 0.00 73 1016.2
20260502181536 62 354 2.0 6.0 0.00 0.00 0.00 72 1016.0